Content
SEND FEEDBACK

Daily
Averages
Monthly
Summary
United States of America

RAPID CITY, SOUTH DAKOTA


Home > North America > United States > South Dakota
Elevation: 3162 feet     Latitude: 44 03N     Longitude: 103 04W

WEATHER
 
SELECT A DAY
Number of Records: 203,268;   Date Range: 1/1/95 - 10/20/14
 
SHARE

PRINT THIS DATA

[ ← Previous Day ]
WEATHER ALMANAC - MARCH 12, 2014
[ Next Day → ]
[ °C ]   °F
Weather ElementAverageHighLow
Temperature39.5 °F53.1 °F (1:52 pm)26.1 °F (4:52 am)
Dewpoint22.1 °F27 °F (6:52 pm)16 °F (6:52 am)
Humidity52.5 %78 % (2:52 am)31 % (3:52 pm)
Barometer30.19 in30.29 in (1:52 am)30.06 in (11:52 pm)
Wind Speed10.3 mph25.3 mph (1:52 pm)
Wind Gust34.5 mph (1:52 pm)
Weather ElementAverage
Visibility10 mi
Wind DirectionWSW (257.4 °)

Weather ElementTotal
Precipitation---
Heating Degree Days25.4 (Base 65)
Averaged from 23 records on March 12, 2014
WEATHER CONDITIONS BREAKOUT
WIND DIRECTION BREAKOUT
WEATHER BY HOUR - MARCH 12, 2014
[ °C ]   °F
Local TimeTemperatureDewpointHumidityBarometerVisibilityWind DirectionWind SpeedGust SpeedPrecipitationEventsConditions
1:52 AM33.1 °F24.1 °F70 %30.29 in10.0 miWest (280°)9.2 mphPartly Cloudy
2:52 AM27.0 °F21.0 °F78 %30.29 in10.0 miWNW (290°)5.8 mphPartly Cloudy
3:52 AM28.0 °F19.9 °F72 %30.26 in10.0 miWNW (290°)6.9 mphClear
4:52 AM26.1 °F18.0 °F71 %30.27 in10.0 miWest (270°)3.5 mphClear
5:52 AM30.0 °F17.1 °F59 %30.26 in10.0 miWest (260°)9.2 mphClear
6:52 AM26.1 °F16.0 °F66 %30.28 in10.0 miWest (280°)6.9 mphClear
7:52 AM30.0 °F16.0 °F56 %30.26 in10.0 miWSW (240°)6.9 mphClear
8:52 AM36.0 °F19.0 °F50 %30.25 in10.0 miWest (280°)3.5 mphClear
9:52 AM44.1 °F21.9 °F42 %30.23 in10.0 miWest (280°)6.9 mphClear
10:52 AM46.0 °F25.0 °F44 %30.22 in10.0 miNW (310°)16.1 mphClear
11:52 AM48.9 °F21.9 °F35 %30.20 in10.0 miNW (320°)18.4 mphClear
12:52 PM51.1 °F24.1 °F35 %30.18 in10.0 miNNW (330°)21.9 mph28.8 mphClear
1:52 PM53.1 °F25.0 °F34 %30.15 in10.0 miNW (310°)25.3 mph34.5 mphScattered Clouds
2:52 PM53.1 °F24.1 °F32 %30.15 in10.0 miNNW (330°)21.9 mphClear
3:52 PM53.1 °F23.0 °F31 %30.14 in10.0 miNW (320°)19.6 mph25.3 mphClear
4:52 PM53.1 °F23.0 °F31 %30.13 in10.0 miNNW (340°)17.3 mphClear
5:52 PM52.0 °F25.0 °F35 %30.12 in10.0 miNNW (330°)9.2 mphClear
6:52 PM42.1 °F27.0 °F55 %30.14 in10.0 miNorth (10°)8.1 mphClear
7:52 PM37.9 °F26.1 °F62 %30.15 in10.0 miNNW (340°)8.1 mphClear
8:52 PM37.0 °F24.1 °F59 %30.14 in10.0 miWest (270°)5.8 mphClear
9:52 PM37.9 °F23.0 °F55 %30.10 in10.0 miWSW (240°)6.9 mphClear
10:52 PM30.0 °F21.9 °F72 %30.10 in10.0 miCalmClear
11:52 PM33.1 °F21.9 °F64 %30.06 in10.0 miCalmClear
Hourly data recorded from KRAP, located miles away from Rapid City, South Dakota







STORIES FROM OUR PARTNERS